Time,TemperatureF,DewpointF,PressureIn,WindDirection,WindDirectionDegrees,WindSpeedMPH,WindSpeedGustMPH,Humidity,HourlyPrecipIn,Conditions,Clouds,dailyrainin,SoftwareType,DateUTC
2013-01-20 00:01:00,18.0,18.0,27.37,ENE,67,0.0,0.0,100,0.00,,,0.00,Rainwise IP-100,2013-01-20 07:01:00,
2013-01-20 00:06:00,18.0,18.0,27.37,ENE,67,0.0,0.0,100,0.00,,,0.00,Rainwise IP-100,2013-01-20 07:06:00,
2013-01-20 00:11:00,18.0,18.0,27.37,ENE,67,0.0,0.0,100,0.00,,,0.00,Rainwise IP-100,2013-01-20 07:11:00,
2013-01-20 00:16:00,17.0,18.0,27.38,ENE,67,0.0,0.0,100,0.00,,,0.00,Rainwise IP-100,2013-01-20 07:16:00,
2013-01-20 00:21:00,17.0,18.0,27.38,ENE,67,0.0,0.0,100,0.00,,,0.00,Rainwise IP-100,2013-01-20 07:21:00,
2013-01-20 00:26:00,17.0,18.0,27.38,ENE,67,0.0,0.0,100,0.00,,,0.00,Rainwise IP-100,2013-01-20 07:26:00,
2013-01-20 00:31:00,17.0,18.0,27.38,ENE,67,0.0,0.0,100,0.00,,,0.00,Rainwise IP-100,2013-01-20 07:31:00,
2013-01-20 00:36:00,16.0,16.0,27.38,ENE,67,0.0,0.0,100,0.00,,,0.00,Rainwise IP-100,2013-01-20 07:36:00,
2013-01-20 00:41:00,17.0,18.0,27.38,ENE,67,0.0,2.0,100,0.00,,,0.00,Rainwise IP-100,2013-01-20 07:41:00,
2013-01-20 00:46:00,17.0,18.0,27.38,ENE,67,0.0,0.0,100,0.00,,,0.00,Rainwise IP-100,2013-01-20 07:46:00,
2013-01-20 00:51:00,17.0,18.0,27.38,ENE,67,0.0,0.0,100,0.00,,,0.00,Rainwise IP-100,2013-01-20 07:51:00,
2013-01-20 00:56:00,17.0,18.0,27.38,South,180,0.0,4.0,100,0.00,,,0.00,Rainwise IP-100,2013-01-20 07:56:00,
2013-01-20 01:01:00,17.0,18.0,27.38,South,180,0.0,1.0,100,0.00,,,0.00,Rainwise IP-100,2013-01-20 08:01:00,
2013-01-20 01:06:00,17.0,18.0,27.38,South,180,0.0,3.0,100,0.00,,,0.00,Rainwise IP-100,2013-01-20 08:06:00,
2013-01-20 01:11:00,17.0,18.0,27.38,South,180,0.0,3.0,100,0.00,,,0.00,Rainwise IP-100,2013-01-20 08:11:00,
2013-01-20 01:17:00,17.0,18.0,27.38,South,180,0.0,3.0,100,0.00,,,0.00,Rainwise IP-100,2013-01-20 08:17:00,
2013-01-20 01:22:00,17.0,18.0,27.38,South,180,0.0,0.0,100,0.00,,,0.00,Rainwise IP-100,2013-01-20 08:22:00,
2013-01-20 01:27:00,17.0,18.0,27.38,ENE,67,0.0,2.0,100,0.00,,,0.00,Rainwise IP-100,2013-01-20 08:27:00,
2013-01-20 01:32:00,17.0,18.0,27.38,ENE,67,0.0,0.0,100,0.00,,,0.00,Rainwise IP-100,2013-01-20 08:32:00,
2013-01-20 01:37:00,17.0,18.0,27.38,ENE,67,0.0,2.0,100,0.00,,,0.00,Rainwise IP-100,2013-01-20 08:37:00,
2013-01-20 01:42:00,17.0,18.0,27.38,ENE,67,0.0,2.0,100,0.00,,,0.00,Rainwise IP-100,2013-01-20 08:42:00,
2013-01-20 01:47:00,17.0,18.0,27.38,ENE,67,1.0,2.0,100,0.00,,,0.00,Rainwise IP-100,2013-01-20 08:47:00,
2013-01-20 01:52:00,17.0,18.0,27.38,ENE,67,0.0,2.0,100,0.00,,,0.00,Rainwise IP-100,2013-01-20 08:52:00,
2013-01-20 01:53:00,17.0,18.0,27.38,ENE,67,0.0,1.0,100,0.00,,,0.00,Rainwise IP-100,2013-01-20 08:53:00,
2013-01-20 01:58:00,17.0,18.0,27.38,ENE,67,0.0,0.0,100,0.00,,,0.00,Rainwise IP-100,2013-01-20 08:58:00,
2013-01-20 02:03:00,17.0,18.0,27.38,ENE,67,0.0,0.0,100,0.00,,,0.00,Rainwise IP-100,2013-01-20 09:03:00,
2013-01-20 02:09:00,17.0,18.0,27.38,ENE,67,0.0,0.0,100,0.00,,,0.00,Rainwise IP-100,2013-01-20 09:09:00,
2013-01-20 02:14:00,17.0,18.0,27.38,ENE,67,0.0,0.0,100,0.00,,,0.00,Rainwise IP-100,2013-01-20 09:14:00,
2013-01-20 02:19:00,16.0,16.0,27.38,ENE,67,0.0,0.0,100,0.00,,,0.00,Rainwise IP-100,2013-01-20 09:19:00,
2013-01-20 02:24:00,16.0,16.0,27.38,ENE,67,0.0,0.0,100,0.00,,,0.00,Rainwise IP-100,2013-01-20 09:24:00,
2013-01-20 02:29:00,16.0,16.0,27.38,ENE,67,0.0,0.0,100,0.00,,,0.00,Rainwise IP-100,2013-01-20 09:29:00,
2013-01-20 02:34:00,16.0,16.0,27.38,ENE,67,0.0,0.0,100,0.00,,,0.00,Rainwise IP-100,2013-01-20 09:34:00,
2013-01-20 02:39:00,16.0,16.0,27.39,WNW,292,5.0,5.0,100,0.00,,,0.00,Rainwise IP-100,2013-01-20 09:39:00,
2013-01-20 02:44:00,16.0,16.0,27.39,WNW,292,0.0,5.0,100,0.00,,,0.00,Rainwise IP-100,2013-01-20 09:44:00,
2013-01-20 02:49:00,16.0,16.0,27.39,WNW,292,0.0,0.0,100,0.00,,,0.00,Rainwise IP-100,2013-01-20 09:49:00,
2013-01-20 02:54:00,16.0,16.0,27.39,WNW,292,0.0,0.0,100,0.00,,,0.00,Rainwise IP-100,2013-01-20 09:54:00,
2013-01-20 02:59:00,16.0,16.0,27.40,SSW,202,0.0,4.0,100,0.00,,,0.00,Rainwise IP-100,2013-01-20 09:59:00,
2013-01-20 03:04:00,16.0,16.0,27.40,SSE,157,0.0,0.0,100,0.00,,,0.00,Rainwise IP-100,2013-01-20 10:04:00,
2013-01-20 03:09:00,16.0,16.0,27.40,SSE,157,0.0,1.0,100,0.00,,,0.00,Rainwise IP-100,2013-01-20 10:09:00,
2013-01-20 03:14:00,16.0,16.0,27.40,SSE,157,0.0,0.0,100,0.00,,,0.00,Rainwise IP-100,2013-01-20 10:14:00,
2013-01-20 03:19:00,15.0,16.0,27.41,SSE,157,0.0,0.0,100,0.00,,,0.00,Rainwise IP-100,2013-01-20 10:19:00,
2013-01-20 03:24:00,15.0,16.0,27.41,NNW,337,0.0,3.0,100,0.00,,,0.00,Rainwise IP-100,2013-01-20 10:24:00,
2013-01-20 03:29:00,15.0,16.0,27.41,NNE,22,2.0,3.0,100,0.00,,,0.00,Rainwise IP-100,2013-01-20 10:29:00,
2013-01-20 03:34:00,15.0,16.0,27.41,NNE,22,0.0,3.0,100,0.00,,,0.00,Rainwise IP-100,2013-01-20 10:34:00,
2013-01-20 03:39:00,15.0,16.0,27.41,NNE,22,0.0,0.0,100,0.00,,,0.00,Rainwise IP-100,2013-01-20 10:39:00,
2013-01-20 03:44:00,15.0,16.0,27.41,NNE,22,0.0,0.0,100,0.00,,,0.00,Rainwise IP-100,2013-01-20 10:44:00,
2013-01-20 03:49:00,15.0,16.0,27.41,NNE,22,0.0,0.0,100,0.00,,,0.00,Rainwise IP-100,2013-01-20 10:49:00,
2013-01-20 03:54:00,14.0,14.0,27.41,NNE,22,0.0,0.0,100,0.00,,,0.00,Rainwise IP-100,2013-01-20 10:54:00,
2013-01-20 03:59:00,14.0,14.0,27.41,NNE,22,0.0,0.0,100,0.00,,,0.00,Rainwise IP-100,2013-01-20 10:59:00,
2013-01-20 04:04:00,14.0,14.0,27.41,NNE,22,0.0,1.0,100,0.00,,,0.00,Rainwise IP-100,2013-01-20 11:04:00,
2013-01-20 04:09:00,14.0,14.0,27.42,WNW,292,0.0,4.0,100,0.00,,,0.00,Rainwise IP-100,2013-01-20 11:09:00,
2013-01-20 04:14:00,14.0,14.0,27.42,SE,135,2.0,4.0,100,0.00,,,0.00,Rainwise IP-100,2013-01-20 11:14:00,
2013-01-20 04:19:00,14.0,14.0,27.41,SE,135,0.0,2.0,100,0.00,,,0.00,Rainwise IP-100,2013-01-20 11:19:00,
2013-01-20 04:24:00,14.0,14.0,27.41,West,270,0.0,4.0,100,0.00,,,0.00,Rainwise IP-100,2013-01-20 11:24:00,
2013-01-20 04:29:00,14.0,14.0,27.41,West,270,1.0,2.0,100,0.00,,,0.00,Rainwise IP-100,2013-01-20 11:29:00,
2013-01-20 04:34:00,14.0,14.0,27.41,West,270,0.0,2.0,100,0.00,,,0.00,Rainwise IP-100,2013-01-20 11:34:00,
2013-01-20 04:39:00,13.0,14.0,27.42,West,270,0.0,0.0,100,0.00,,,0.00,Rainwise IP-100,2013-01-20 11:39:00,
2013-01-20 04:44:00,13.0,14.0,27.42,West,270,0.0,0.0,100,0.00,,,0.00,Rainwise IP-100,2013-01-20 11:44:00,
2013-01-20 04:49:00,14.0,14.0,27.42,SSE,157,0.0,2.0,100,0.00,,,0.00,Rainwise IP-100,2013-01-20 11:49:00,
2013-01-20 04:54:00,14.0,14.0,27.42,WSW,247,0.0,3.0,100,0.00,,,0.00,Rainwise IP-100,2013-01-20 11:54:00,
2013-01-20 04:59:00,14.0,14.0,27.42,WSW,247,3.0,3.0,100,0.00,,,0.00,Rainwise IP-100,2013-01-20 11:59:00,
2013-01-20 05:04:00,13.0,14.0,27.42,WSW,247,3.0,4.0,100,0.00,,,0.00,Rainwise IP-100,2013-01-20 12:04:00,
2013-01-20 05:09:00,14.0,14.0,27.42,WSW,247,0.0,5.0,100,0.00,,,0.00,Rainwise IP-100,2013-01-20 12:09:00,
2013-01-20 05:14:00,14.0,14.0,27.42,WSW,247,3.0,3.0,100,0.00,,,0.00,Rainwise IP-100,2013-01-20 12:14:00,
2013-01-20 05:19:00,14.0,14.0,27.42,ESE,112,0.0,4.0,100,0.00,,,0.00,Rainwise IP-100,2013-01-20 12:19:00,
2013-01-20 05:24:00,14.0,14.0,27.42,ESE,112,0.0,2.0,100,0.00,,,0.00,Rainwise IP-100,2013-01-20 12:24:00,
2013-01-20 05:29:00,14.0,14.0,27.42,ESE,112,0.0,0.0,100,0.00,,,0.00,Rainwise IP-100,2013-01-20 12:29:00,
2013-01-20 05:34:00,15.0,16.0,27.42,SSE,157,0.0,3.0,100,0.00,,,0.00,Rainwise IP-100,2013-01-20 12:34:00,
2013-01-20 05:39:00,15.0,16.0,27.42,SSE,157,0.0,0.0,100,0.00,,,0.00,Rainwise IP-100,2013-01-20 12:39:00,
2013-01-20 05:44:00,15.0,16.0,27.42,SSE,157,0.0,1.0,100,0.00,,,0.00,Rainwise IP-100,2013-01-20 12:44:00,
2013-01-20 05:49:00,15.0,16.0,27.42,SSE,157,0.0,0.0,100,0.00,,,0.00,Rainwise IP-100,2013-01-20 12:49:00,
2013-01-20 05:54:00,15.0,16.0,27.42,SSE,157,0.0,0.0,100,0.00,,,0.00,Rainwise IP-100,2013-01-20 12:54:00,
2013-01-20 05:59:00,15.0,16.0,27.41,SSE,157,1.0,1.0,100,0.00,,,0.00,Rainwise IP-100,2013-01-20 12:59:00,
2013-01-20 06:04:00,16.0,16.0,27.41,SSE,157,1.0,1.0,100,0.00,,,0.00,Rainwise IP-100,2013-01-20 13:04:00,
2013-01-20 06:09:00,16.0,16.0,27.40,SSE,157,1.0,2.0,100,0.00,,,0.00,Rainwise IP-100,2013-01-20 13:09:00,
2013-01-20 06:14:00,16.0,16.0,27.40,SSE,157,0.0,2.0,100,0.00,,,0.00,Rainwise IP-100,2013-01-20 13:14:00,
2013-01-20 06:19:00,15.0,16.0,27.40,SSE,157,0.0,0.0,100,0.00,,,0.00,Rainwise IP-100,2013-01-20 13:19:00,
2013-01-20 06:24:00,15.0,16.0,27.40,SSE,157,0.0,0.0,100,0.00,,,0.00,Rainwise IP-100,2013-01-20 13:24:00,
2013-01-20 06:29:00,15.0,16.0,27.42,SSE,157,0.0,0.0,100,0.00,,,0.00,Rainwise IP-100,2013-01-20 13:29:00,
2013-01-20 06:34:00,15.0,16.0,27.42,SSE,157,0.0,0.0,100,0.00,,,0.00,Rainwise IP-100,2013-01-20 13:34:00,
2013-01-20 06:39:00,15.0,16.0,27.41,SSE,157,1.0,2.0,100,0.00,,,0.00,Rainwise IP-100,2013-01-20 13:39:00,
2013-01-20 06:44:00,15.0,16.0,27.41,SSE,157,0.0,2.0,100,0.00,,,0.00,Rainwise IP-100,2013-01-20 13:44:00,
2013-01-20 06:49:00,15.0,16.0,27.42,SSE,157,0.0,0.0,100,0.00,,,0.00,Rainwise IP-100,2013-01-20 13:49:00,
2013-01-20 06:54:00,14.0,14.0,27.42,SSE,157,0.0,0.0,100,0.00,,,0.00,Rainwise IP-100,2013-01-20 13:54:00,
2013-01-20 06:59:00,14.0,14.0,27.41,SSE,157,0.0,2.0,100,0.00,,,0.00,Rainwise IP-100,2013-01-20 13:59:00,
2013-01-20 07:04:00,14.0,14.0,27.41,SSE,157,0.0,3.0,100,0.00,,,0.00,Rainwise IP-100,2013-01-20 14:04:00,
2013-01-20 07:09:00,14.0,14.0,27.42,SSE,157,0.0,1.0,100,0.00,,,0.00,Rainwise IP-100,2013-01-20 14:09:00,
2013-01-20 07:14:00,14.0,14.0,27.42,SSE,157,0.0,0.0,100,0.00,,,0.00,Rainwise IP-100,2013-01-20 14:14:00,
2013-01-20 07:19:00,13.0,14.0,27.42,SSE,157,0.0,0.0,100,0.00,,,0.00,Rainwise IP-100,2013-01-20 14:19:00,
2013-01-20 07:24:00,13.0,14.0,27.42,SSE,157,0.0,0.0,100,0.00,,,0.00,Rainwise IP-100,2013-01-20 14:24:00,
2013-01-20 07:29:00,13.0,14.0,27.42,SSE,157,0.0,0.0,100,0.00,,,0.00,Rainwise IP-100,2013-01-20 14:29:00,
2013-01-20 07:34:00,13.0,14.0,27.42,SSE,157,0.0,0.0,100,0.00,,,0.00,Rainwise IP-100,2013-01-20 14:34:00,
2013-01-20 07:39:00,13.0,14.0,27.42,SSE,157,1.0,2.0,100,0.00,,,0.00,Rainwise IP-100,2013-01-20 14:39:00,
2013-01-20 07:44:00,12.0,14.0,27.42,SSE,157,0.0,1.0,100,0.00,,,0.00,Rainwise IP-100,2013-01-20 14:44:00,
2013-01-20 07:49:00,12.0,14.0,27.44,SSE,157,1.0,3.0,100,0.00,,,0.00,Rainwise IP-100,2013-01-20 14:49:00,
2013-01-20 07:54:00,12.0,14.0,27.44,SSE,157,0.0,2.0,100,0.00,,,0.00,Rainwise IP-100,2013-01-20 14:54:00,
2013-01-20 07:59:00,12.0,14.0,27.44,West,270,0.0,5.0,100,0.00,,,0.00,Rainwise IP-100,2013-01-20 14:59:00,
2013-01-20 08:04:00,12.0,14.0,27.44,West,270,0.0,1.0,100,0.00,,,0.00,Rainwise IP-100,2013-01-20 15:04:00,
2013-01-20 08:09:00,12.0,14.0,27.44,West,270,0.0,0.0,100,0.00,,,0.00,Rainwise IP-100,2013-01-20 15:09:00,
2013-01-20 08:14:00,12.0,14.0,27.44,West,270,0.0,2.0,100,0.00,,,0.00,Rainwise IP-100,2013-01-20 15:14:00,
2013-01-20 08:19:00,12.0,14.0,27.45,West,270,0.0,0.0,100,0.00,,,0.00,Rainwise IP-100,2013-01-20 15:19:00,
2013-01-20 08:24:00,12.0,14.0,27.45,West,270,0.0,1.0,100,0.00,,,0.00,Rainwise IP-100,2013-01-20 15:24:00,
2013-01-20 08:29:00,12.0,14.0,27.45,West,270,0.0,1.0,100,0.00,,,0.00,Rainwise IP-100,2013-01-20 15:29:00,
2013-01-20 08:34:00,11.0,11.0,27.45,West,270,0.0,0.0,100,0.00,,,0.00,Rainwise IP-100,2013-01-20 15:34:00,
2013-01-20 08:39:00,11.0,11.0,27.46,West,270,0.0,0.0,100,0.00,,,0.00,Rainwise IP-100,2013-01-20 15:39:00,
2013-01-20 08:44:00,11.0,11.0,27.46,West,270,0.0,0.0,100,0.00,,,0.00,Rainwise IP-100,2013-01-20 15:44:00,
2013-01-20 08:49:00,11.0,11.0,27.46,West,270,0.0,0.0,100,0.00,,,0.00,Rainwise IP-100,2013-01-20 15:49:00,
2013-01-20 08:54:00,12.0,14.0,27.46,West,270,0.0,0.0,100,0.00,,,0.00,Rainwise IP-100,2013-01-20 15:54:00,
2013-01-20 08:59:00,12.0,14.0,27.45,West,270,0.0,0.0,100,0.00,,,0.00,Rainwise IP-100,2013-01-20 15:59:00,
2013-01-20 09:04:00,13.0,14.0,27.45,West,270,0.0,0.0,100,0.00,,,0.00,Rainwise IP-100,2013-01-20 16:04:00,
2013-01-20 09:09:00,13.0,14.0,27.44,West,270,0.0,0.0,100,0.00,,,0.00,Rainwise IP-100,2013-01-20 16:09:00,
2013-01-20 09:14:00,14.0,14.0,27.44,West,270,0.0,0.0,100,0.00,,,0.00,Rainwise IP-100,2013-01-20 16:14:00,
2013-01-20 09:19:00,14.0,14.0,27.44,West,270,0.0,0.0,100,0.00,,,0.00,Rainwise IP-100,2013-01-20 16:19:00,
2013-01-20 09:24:00,15.0,16.0,27.44,West,270,0.0,0.0,100,0.00,,,0.00,Rainwise IP-100,2013-01-20 16:24:00,
2013-01-20 09:29:00,16.0,16.0,27.44,West,270,0.0,0.0,100,0.00,,,0.00,Rainwise IP-100,2013-01-20 16:29:00,
2013-01-20 09:34:00,16.0,16.0,27.44,West,270,0.0,0.0,100,0.00,,,0.00,Rainwise IP-100,2013-01-20 16:34:00,
2013-01-20 09:39:00,17.0,18.0,27.42,South,180,2.0,3.0,100,0.00,,,0.00,Rainwise IP-100,2013-01-20 16:39:00,
2013-01-20 09:44:00,18.0,18.0,27.42,South,180,2.0,3.0,100,0.00,,,0.00,Rainwise IP-100,2013-01-20 16:44:00,
2013-01-20 09:49:00,18.0,18.0,27.41,South,180,0.0,2.0,100,0.00,,,0.00,Rainwise IP-100,2013-01-20 16:49:00,
2013-01-20 09:54:00,18.0,18.0,27.41,South,180,0.0,0.0,100,0.00,,,0.00,Rainwise IP-100,2013-01-20 16:54:00,
2013-01-20 09:59:00,19.0,21.0,27.41,South,180,0.0,2.0,100,0.00,,,0.00,Rainwise IP-100,2013-01-20 16:59:00,
2013-01-20 10:04:00,19.0,21.0,27.41,SSE,157,2.0,3.0,100,0.00,,,0.00,Rainwise IP-100,2013-01-20 17:04:00,
2013-01-20 10:09:00,20.0,21.0,27.41,SSE,157,1.0,3.0,100,0.00,,,0.00,Rainwise IP-100,2013-01-20 17:09:00,
2013-01-20 10:14:00,22.0,23.0,27.41,SSE,157,2.0,3.0,100,0.00,,,0.00,Rainwise IP-100,2013-01-20 17:14:00,
2013-01-20 10:19:00,22.0,23.0,27.40,SE,135,0.0,5.0,97,0.00,,,0.00,Rainwise IP-100,2013-01-20 17:19:00,
2013-01-20 10:24:00,23.0,23.0,27.40,SE,135,1.0,2.0,100,0.00,,,0.00,Rainwise IP-100,2013-01-20 17:24:00,
2013-01-20 10:29:00,24.0,24.0,27.38,SE,135,1.0,3.0,98,0.00,,,0.00,Rainwise IP-100,2013-01-20 17:29:00,
2013-01-20 10:34:00,24.0,24.0,27.38,SE,135,0.0,1.0,98,0.00,,,0.00,Rainwise IP-100,2013-01-20 17:34:00,
2013-01-20 10:39:00,25.0,26.0,27.38,East,90,0.0,2.0,98,0.00,,,0.00,Rainwise IP-100,2013-01-20 17:39:00,
2013-01-20 10:44:00,26.0,24.0,27.38,NNE,22,3.0,5.0,91,0.00,,,0.00,Rainwise IP-100,2013-01-20 17:44:00,
2013-01-20 10:49:00,26.0,24.0,27.38,NE,45,3.0,4.0,94,0.00,,,0.00,Rainwise IP-100,2013-01-20 17:49:00,
2013-01-20 10:54:00,27.0,26.0,27.38,NNE,22,0.0,5.0,93,0.00,,,0.00,Rainwise IP-100,2013-01-20 17:54:00,
2013-01-20 10:59:00,27.0,26.0,27.37,NNE,22,1.0,2.0,95,0.00,,,0.00,Rainwise IP-100,2013-01-20 17:59:00,
2013-01-20 11:04:00,28.0,26.0,27.37,East,90,1.0,1.0,91,0.00,,,0.00,Rainwise IP-100,2013-01-20 18:04:00,
2013-01-20 11:09:00,29.0,28.0,27.36,East,90,0.0,1.0,92,0.00,,,0.00,Rainwise IP-100,2013-01-20 18:09:00,
2013-01-20 11:14:00,30.0,29.0,27.36,NW,315,3.0,4.0,92,0.00,,,0.00,Rainwise IP-100,2013-01-20 18:14:00,
2013-01-20 11:19:00,30.0,28.0,27.35,NW,315,2.0,5.0,88,0.00,,,0.00,Rainwise IP-100,2013-01-20 18:19:00,
2013-01-20 11:24:00,30.0,29.0,27.35,NW,315,0.0,4.0,92,0.00,,,0.00,Rainwise IP-100,2013-01-20 18:24:00,
2013-01-20 11:29:00,31.0,28.0,27.35,SSE,157,3.0,4.0,88,0.00,,,0.00,Rainwise IP-100,2013-01-20 18:29:00,
2013-01-20 11:34:00,31.0,26.0,27.35,South,180,2.0,3.0,81,0.00,,,0.00,Rainwise IP-100,2013-01-20 18:34:00,
2013-01-20 11:39:00,31.0,28.0,27.35,WSW,247,0.0,4.0,89,0.00,,,0.00,Rainwise IP-100,2013-01-20 18:39:00,
2013-01-20 11:44:00,32.0,28.0,27.35,SSE,157,2.0,4.0,84,0.00,,,0.00,Rainwise IP-100,2013-01-20 18:44:00,
2013-01-20 11:49:00,32.0,26.0,27.34,ESE,112,1.0,4.0,80,0.00,,,0.00,Rainwise IP-100,2013-01-20 18:49:00,
2013-01-20 11:54:00,31.0,26.0,27.34,East,90,5.0,6.0,82,0.00,,,0.00,Rainwise IP-100,2013-01-20 18:54:00,
2013-01-20 11:59:00,31.0,23.0,27.34,SSE,157,3.0,6.0,73,0.00,,,0.00,Rainwise IP-100,2013-01-20 18:59:00,
2013-01-20 12:04:00,32.0,28.0,27.34,SE,135,0.0,5.0,81,0.00,,,0.00,Rainwise IP-100,2013-01-20 19:04:00,
2013-01-20 12:09:00,33.0,28.0,27.32,South,180,1.0,3.0,78,0.00,,,0.00,Rainwise IP-100,2013-01-20 19:09:00,
2013-01-20 12:14:00,34.0,28.0,27.32,South,180,2.0,3.0,74,0.00,,,0.00,Rainwise IP-100,2013-01-20 19:14:00,
2013-01-20 12:19:00,35.0,24.0,27.30,SSW,202,1.0,3.0,67,0.00,,,0.00,Rainwise IP-100,2013-01-20 19:19:00,
2013-01-20 12:24:00,35.0,24.0,27.30,South,180,3.0,4.0,65,0.00,,,0.00,Rainwise IP-100,2013-01-20 19:24:00,
2013-01-20 12:29:00,35.0,23.0,27.30,South,180,0.0,5.0,61,0.06,,,0.01,Rainwise IP-100,2013-01-20 19:29:00,
2013-01-20 12:34:00,36.0,24.0,27.30,SW,225,0.0,2.0,62,0.06,,,0.01,Rainwise IP-100,2013-01-20 19:34:00,
2013-01-20 12:39:00,36.0,24.0,27.29,WSW,247,0.0,4.0,61,0.00,,,0.01,Rainwise IP-100,2013-01-20 19:39:00,
2013-01-20 12:44:00,36.0,24.0,27.29,West,270,0.0,6.0,62,0.00,,,0.01,Rainwise IP-100,2013-01-20 19:44:00,
2013-01-20 12:49:00,36.0,24.0,27.29,West,270,1.0,5.0,64,0.00,,,0.01,Rainwise IP-100,2013-01-20 19:49:00,
2013-01-20 12:54:00,35.0,24.0,27.29,West,270,3.0,5.0,66,0.00,,,0.01,Rainwise IP-100,2013-01-20 19:54:00,
2013-01-20 12:59:00,34.0,24.0,27.30,West,270,3.0,6.0,66,0.00,,,0.01,Rainwise IP-100,2013-01-20 19:59:00,
2013-01-20 13:04:00,34.0,24.0,27.30,WNW,292,2.0,5.0,66,0.00,,,0.01,Rainwise IP-100,2013-01-20 20:04:00,
2013-01-20 13:09:00,34.0,24.0,27.29,West,270,4.0,6.0,66,0.06,,,0.02,Rainwise IP-100,2013-01-20 20:09:00,
2013-01-20 13:14:00,33.0,24.0,27.29,West,270,2.0,7.0,68,0.06,,,0.02,Rainwise IP-100,2013-01-20 20:14:00,
2013-01-20 13:19:00,34.0,24.0,27.29,WNW,292,0.0,5.0,66,0.00,,,0.02,Rainwise IP-100,2013-01-20 20:19:00,
2013-01-20 13:24:00,35.0,24.0,27.29,West,270,2.0,4.0,65,0.00,,,0.02,Rainwise IP-100,2013-01-20 20:24:00,
2013-01-20 13:29:00,35.0,24.0,27.28,West,270,3.0,6.0,66,0.00,,,0.02,Rainwise IP-100,2013-01-20 20:29:00,
2013-01-20 13:34:00,36.0,24.0,27.28,West,270,1.0,6.0,64,0.00,,,0.02,Rainwise IP-100,2013-01-20 20:34:00,
2013-01-20 13:39:00,36.0,26.0,27.27,West,270,0.0,6.0,65,0.00,,,0.02,Rainwise IP-100,2013-01-20 20:39:00,
2013-01-20 13:44:00,36.0,24.0,27.27,NW,315,2.0,6.0,64,0.00,,,0.02,Rainwise IP-100,2013-01-20 20:44:00,
2013-01-20 13:49:00,36.0,24.0,27.27,North,360,3.0,7.0,64,0.00,,,0.02,Rainwise IP-100,2013-01-20 20:49:00,
2013-01-20 13:54:00,34.0,24.0,27.27,NW,315,4.0,8.0,66,0.06,,,0.03,Rainwise IP-100,2013-01-20 20:54:00,
2013-01-20 13:59:00,34.0,24.0,27.28,NW,315,3.0,6.0,67,0.06,,,0.03,Rainwise IP-100,2013-01-20 20:59:00,
2013-01-20 14:04:00,35.0,24.0,27.28,NW,315,0.0,6.0,66,0.00,,,0.03,Rainwise IP-100,2013-01-20 21:04:00,
2013-01-20 14:09:00,35.0,24.0,27.27,NW,315,3.0,6.0,65,0.00,,,0.03,Rainwise IP-100,2013-01-20 21:09:00,
2013-01-20 14:14:00,35.0,24.0,27.27,NW,315,5.0,7.0,64,0.00,,,0.03,Rainwise IP-100,2013-01-20 21:14:00,
2013-01-20 14:19:00,35.0,24.0,27.27,NNW,337,4.0,7.0,65,0.06,,,0.04,Rainwise IP-100,2013-01-20 21:19:00,
2013-01-20 14:24:00,35.0,24.0,27.27,NW,315,2.0,5.0,65,0.06,,,0.04,Rainwise IP-100,2013-01-20 21:24:00,
2013-01-20 14:29:00,36.0,26.0,27.27,WNW,292,4.0,5.0,65,0.00,,,0.04,Rainwise IP-100,2013-01-20 21:29:00,
2013-01-20 14:34:00,35.0,24.0,27.27,West,270,3.0,6.0,64,0.00,,,0.04,Rainwise IP-100,2013-01-20 21:34:00,
2013-01-20 14:39:00,35.0,24.0,27.26,NNW,337,6.0,6.0,66,0.00,,,0.04,Rainwise IP-100,2013-01-20 21:39:00,
2013-01-20 14:44:00,36.0,24.0,27.26,West,270,4.0,6.0,62,0.00,,,0.04,Rainwise IP-100,2013-01-20 21:44:00,
2013-01-20 14:49:00,37.0,24.0,27.26,WSW,247,0.0,6.0,60,0.00,,,0.04,Rainwise IP-100,2013-01-20 21:49:00,
2013-01-20 14:54:00,38.0,26.0,27.26,West,270,3.0,4.0,60,0.06,,,0.05,Rainwise IP-100,2013-01-20 21:54:00,
2013-01-20 14:59:00,37.0,24.0,27.26,West,270,2.0,6.0,59,0.06,,,0.05,Rainwise IP-100,2013-01-20 21:59:00,
2013-01-20 15:04:00,37.0,26.0,27.26,NNW,337,4.0,5.0,62,0.00,,,0.05,Rainwise IP-100,2013-01-20 22:04:00,
2013-01-20 15:09:00,37.0,24.0,27.26,NW,315,6.0,6.0,61,0.00,,,0.05,Rainwise IP-100,2013-01-20 22:09:00,
2013-01-20 15:14:00,35.0,23.0,27.26,NW,315,6.0,7.0,62,0.00,,,0.05,Rainwise IP-100,2013-01-20 22:14:00,
2013-01-20 15:19:00,35.0,24.0,27.27,NNW,337,2.0,7.0,64,0.06,,,0.06,Rainwise IP-100,2013-01-20 22:19:00,
2013-01-20 15:24:00,35.0,24.0,27.27,WNW,292,3.0,5.0,63,0.06,,,0.06,Rainwise IP-100,2013-01-20 22:24:00,
2013-01-20 15:29:00,35.0,24.0,27.27,NW,315,3.0,6.0,63,0.00,,,0.06,Rainwise IP-100,2013-01-20 22:29:00,
2013-01-20 15:34:00,34.0,24.0,27.27,NNW,337,2.0,6.0,64,0.00,,,0.06,Rainwise IP-100,2013-01-20 22:34:00,
2013-01-20 15:39:00,34.0,24.0,27.27,NW,315,3.0,6.0,64,0.00,,,0.06,Rainwise IP-100,2013-01-20 22:39:00,
2013-01-20 15:44:00,35.0,24.0,27.27,WNW,292,1.0,6.0,64,0.00,,,0.06,Rainwise IP-100,2013-01-20 22:44:00,
2013-01-20 15:49:00,35.0,24.0,27.27,NNW,337,1.0,5.0,64,0.00,,,0.06,Rainwise IP-100,2013-01-20 22:49:00,
2013-01-20 15:54:00,36.0,24.0,27.27,NNW,337,0.0,3.0,62,0.00,,,0.06,Rainwise IP-100,2013-01-20 22:54:00,
2013-01-20 15:59:00,37.0,24.0,27.25,NW,315,1.0,5.0,59,0.00,,,0.06,Rainwise IP-100,2013-01-20 22:59:00,
2013-01-20 16:04:00,36.0,24.0,27.25,NW,315,4.0,5.0,60,0.00,,,0.06,Rainwise IP-100,2013-01-20 23:04:00,
2013-01-20 16:09:00,37.0,24.0,27.25,NW,315,3.0,4.0,59,0.06,,,0.07,Rainwise IP-100,2013-01-20 23:09:00,
2013-01-20 16:14:00,36.0,24.0,27.25,NW,315,1.0,4.0,60,0.06,,,0.07,Rainwise IP-100,2013-01-20 23:14:00,
2013-01-20 16:19:00,35.0,23.0,27.26,NW,315,2.0,5.0,62,0.00,,,0.07,Rainwise IP-100,2013-01-20 23:19:00,
2013-01-20 16:24:00,34.0,24.0,27.26,WNW,292,1.0,4.0,64,0.00,,,0.07,Rainwise IP-100,2013-01-20 23:24:00,
2013-01-20 16:29:00,34.0,24.0,27.27,WNW,292,4.0,4.0,65,0.00,,,0.07,Rainwise IP-100,2013-01-20 23:29:00,
2013-01-20 16:34:00,33.0,24.0,27.27,West,270,2.0,5.0,66,0.00,,,0.07,Rainwise IP-100,2013-01-20 23:34:00,
2013-01-20 16:39:00,32.0,23.0,27.27,West,270,1.0,6.0,68,0.00,,,0.07,Rainwise IP-100,2013-01-20 23:39:00,
2013-01-20 16:44:00,32.0,23.0,27.27,West,270,1.0,3.0,69,0.00,,,0.07,Rainwise IP-100,2013-01-20 23:44:00,
2013-01-20 16:49:00,32.0,23.0,27.28,West,270,0.0,3.0,69,0.00,,,0.07,Rainwise IP-100,2013-01-20 23:49:00,
2013-01-20 16:54:00,31.0,23.0,27.28,West,270,1.0,5.0,70,0.00,,,0.07,Rainwise IP-100,2013-01-20 23:54:00,
2013-01-20 16:59:00,31.0,23.0,27.28,West,270,3.0,3.0,71,0.00,,,0.07,Rainwise IP-100,2013-01-20 23:59:00,
2013-01-20 17:04:00,31.0,23.0,27.28,West,270,1.0,4.0,72,0.00,,,0.07,Rainwise IP-100,2013-01-21 00:04:00,
2013-01-20 17:09:00,30.0,23.0,27.29,West,270,0.0,3.0,72,0.00,,,0.07,Rainwise IP-100,2013-01-21 00:09:00,
2013-01-20 17:14:00,30.0,23.0,27.29,West,270,0.0,0.0,73,0.00,,,0.07,Rainwise IP-100,2013-01-21 00:14:00,
2013-01-20 17:19:00,29.0,23.0,27.29,West,270,0.0,0.0,74,0.00,,,0.07,Rainwise IP-100,2013-01-21 00:19:00,
2013-01-20 17:24:00,28.0,21.0,27.29,West,270,0.0,0.0,75,0.00,,,0.07,Rainwise IP-100,2013-01-21 00:24:00,
2013-01-20 17:29:00,28.0,23.0,27.30,West,270,0.0,0.0,78,0.00,,,0.07,Rainwise IP-100,2013-01-21 00:29:00,
2013-01-20 17:34:00,27.0,23.0,27.30,West,270,0.0,0.0,80,0.00,,,0.07,Rainwise IP-100,2013-01-21 00:34:00,
2013-01-20 17:39:00,27.0,23.0,27.31,West,270,0.0,0.0,80,0.00,,,0.07,Rainwise IP-100,2013-01-21 00:39:00,
2013-01-20 17:44:00,26.0,23.0,27.31,West,270,0.0,0.0,84,0.00,,,0.07,Rainwise IP-100,2013-01-21 00:44:00,
2013-01-20 17:49:00,26.0,23.0,27.32,West,270,0.0,0.0,86,0.00,,,0.07,Rainwise IP-100,2013-01-21 00:49:00,
2013-01-20 17:54:00,25.0,23.0,27.32,West,270,0.0,0.0,86,0.00,,,0.07,Rainwise IP-100,2013-01-21 00:54:00,
2013-01-20 17:59:00,25.0,23.0,27.32,West,270,0.0,0.0,87,0.00,,,0.07,Rainwise IP-100,2013-01-21 00:59:00,
2013-01-20 18:04:00,25.0,24.0,27.32,West,270,0.0,0.0,90,0.00,,,0.07,Rainwise IP-100,2013-01-21 01:04:00,
2013-01-20 18:09:00,25.0,24.0,27.32,West,270,0.0,0.0,92,0.00,,,0.07,Rainwise IP-100,2013-01-21 01:09:00,
2013-01-20 18:14:00,25.0,24.0,27.32,West,270,0.0,0.0,90,0.00,,,0.07,Rainwise IP-100,2013-01-21 01:14:00,
2013-01-20 18:19:00,25.0,24.0,27.32,West,270,0.0,0.0,91,0.00,,,0.07,Rainwise IP-100,2013-01-21 01:19:00,
2013-01-20 18:24:00,24.0,23.0,27.32,West,270,0.0,0.0,91,0.00,,,0.07,Rainwise IP-100,2013-01-21 01:24:00,
2013-01-20 18:29:00,24.0,23.0,27.33,West,270,0.0,0.0,92,0.00,,,0.07,Rainwise IP-100,2013-01-21 01:29:00,
2013-01-20 18:34:00,23.0,21.0,27.33,West,270,0.0,0.0,92,0.00,,,0.07,Rainwise IP-100,2013-01-21 01:34:00,
2013-01-20 18:39:00,23.0,21.0,27.33,West,270,0.0,0.0,94,0.00,,,0.07,Rainwise IP-100,2013-01-21 01:39:00,
2013-01-20 18:44:00,23.0,21.0,27.33,West,270,0.0,0.0,95,0.00,,,0.07,Rainwise IP-100,2013-01-21 01:44:00,
2013-01-20 18:49:00,23.0,23.0,27.33,West,270,0.0,0.0,96,0.00,,,0.07,Rainwise IP-100,2013-01-21 01:49:00,
2013-01-20 18:54:00,23.0,23.0,27.33,West,270,0.0,2.0,97,0.00,,,0.07,Rainwise IP-100,2013-01-21 01:54:00,
2013-01-20 18:59:00,23.0,23.0,27.33,West,270,0.0,0.0,96,0.00,,,0.07,Rainwise IP-100,2013-01-21 01:59:00,
2013-01-20 19:04:00,23.0,23.0,27.33,West,270,0.0,0.0,96,0.00,,,0.07,Rainwise IP-100,2013-01-21 02:04:00,
2013-01-20 19:09:00,23.0,23.0,27.33,West,270,0.0,1.0,96,0.00,,,0.07,Rainwise IP-100,2013-01-21 02:09:00,
2013-01-20 19:14:00,22.0,23.0,27.33,West,270,0.0,0.0,97,0.00,,,0.07,Rainwise IP-100,2013-01-21 02:14:00,
2013-01-20 19:19:00,22.0,23.0,27.34,West,270,0.0,0.0,97,0.00,,,0.07,Rainwise IP-100,2013-01-21 02:19:00,
2013-01-20 19:24:00,22.0,23.0,27.34,West,270,0.0,3.0,97,0.00,,,0.07,Rainwise IP-100,2013-01-21 02:24:00,
2013-01-20 19:29:00,22.0,23.0,27.34,West,270,0.0,0.0,99,0.00,,,0.07,Rainwise IP-100,2013-01-21 02:29:00,
2013-01-20 19:34:00,22.0,23.0,27.34,West,270,0.0,0.0,99,0.00,,,0.07,Rainwise IP-100,2013-01-21 02:34:00,
2013-01-20 19:39:00,22.0,23.0,27.35,West,270,0.0,0.0,98,0.00,,,0.07,Rainwise IP-100,2013-01-21 02:39:00,
2013-01-20 19:44:00,22.0,23.0,27.35,West,270,0.0,0.0,98,0.00,,,0.07,Rainwise IP-100,2013-01-21 02:44:00,
2013-01-20 19:49:00,21.0,21.0,27.34,West,270,0.0,0.0,100,0.00,,,0.07,Rainwise IP-100,2013-01-21 02:49:00,
2013-01-20 19:54:00,21.0,21.0,27.34,West,270,0.0,0.0,100,0.00,,,0.07,Rainwise IP-100,2013-01-21 02:54:00,
2013-01-20 19:59:00,21.0,21.0,27.35,West,270,0.0,0.0,100,0.00,,,0.07,Rainwise IP-100,2013-01-21 02:59:00,
2013-01-20 20:04:00,21.0,21.0,27.35,West,270,0.0,0.0,100,0.00,,,0.07,Rainwise IP-100,2013-01-21 03:04:00,
2013-01-20 20:09:00,21.0,21.0,27.34,West,270,0.0,0.0,100,0.00,,,0.07,Rainwise IP-100,2013-01-21 03:09:00,
2013-01-20 20:14:00,21.0,21.0,27.34,West,270,0.0,0.0,100,0.00,,,0.07,Rainwise IP-100,2013-01-21 03:14:00,
2013-01-20 20:19:00,20.0,21.0,27.34,West,270,0.0,0.0,100,0.00,,,0.07,Rainwise IP-100,2013-01-21 03:19:00,
2013-01-20 20:24:00,20.0,21.0,27.34,West,270,0.0,0.0,100,0.00,,,0.07,Rainwise IP-100,2013-01-21 03:24:00,
2013-01-20 20:29:00,20.0,21.0,27.35,West,270,0.0,0.0,100,0.00,,,0.07,Rainwise IP-100,2013-01-21 03:29:00,
2013-01-20 20:34:00,20.0,21.0,27.35,West,270,0.0,1.0,100,0.00,,,0.07,Rainwise IP-100,2013-01-21 03:34:00,
2013-01-20 20:39:00,20.0,21.0,27.34,West,270,0.0,0.0,100,0.00,,,0.07,Rainwise IP-100,2013-01-21 03:39:00,
2013-01-20 20:44:00,20.0,21.0,27.34,West,270,0.0,0.0,100,0.00,,,0.07,Rainwise IP-100,2013-01-21 03:44:00,
2013-01-20 20:49:00,20.0,21.0,27.35,West,270,0.0,1.0,100,0.00,,,0.07,Rainwise IP-100,2013-01-21 03:49:00,
2013-01-20 20:54:00,20.0,21.0,27.35,West,270,0.0,0.0,100,0.00,,,0.07,Rainwise IP-100,2013-01-21 03:54:00,
2013-01-20 20:59:00,20.0,21.0,27.35,West,270,0.0,0.0,100,0.00,,,0.07,Rainwise IP-100,2013-01-21 03:59:00,
2013-01-20 21:04:00,19.0,21.0,27.35,West,270,0.0,0.0,100,0.00,,,0.07,Rainwise IP-100,2013-01-21 04:04:00,
2013-01-20 21:09:00,19.0,21.0,27.36,West,270,0.0,0.0,100,0.00,,,0.07,Rainwise IP-100,2013-01-21 04:09:00,
2013-01-20 21:14:00,19.0,21.0,27.36,NNE,22,0.0,2.0,100,0.00,,,0.07,Rainwise IP-100,2013-01-21 04:14:00,
2013-01-20 21:19:00,19.0,21.0,27.35,WSW,247,2.0,3.0,100,0.00,,,0.07,Rainwise IP-100,2013-01-21 04:19:00,
2013-01-20 21:24:00,19.0,21.0,27.35,WSW,247,0.0,4.0,100,0.00,,,0.07,Rainwise IP-100,2013-01-21 04:24:00,
2013-01-20 21:29:00,19.0,21.0,27.36,SSW,202,2.0,2.0,100,0.00,,,0.07,Rainwise IP-100,2013-01-21 04:29:00,
2013-01-20 21:34:00,19.0,21.0,27.36,SSE,157,3.0,6.0,100,0.00,,,0.07,Rainwise IP-100,2013-01-21 04:34:00,
2013-01-20 21:39:00,19.0,21.0,27.36,SSE,157,0.0,3.0,100,0.00,,,0.07,Rainwise IP-100,2013-01-21 04:39:00,
2013-01-20 21:44:00,18.0,18.0,27.36,WSW,247,0.0,3.0,100,0.00,,,0.07,Rainwise IP-100,2013-01-21 04:44:00,
2013-01-20 21:49:00,18.0,18.0,27.36,WSW,247,1.0,0.0,100,0.00,,,0.07,Rainwise IP-100,2013-01-21 04:49:00,
2013-01-20 21:54:00,18.0,18.0,27.36,WSW,247,0.0,3.0,100,0.00,,,0.07,Rainwise IP-100,2013-01-21 04:54:00,
2013-01-20 21:59:00,18.0,18.0,27.36,WSW,247,0.0,0.0,100,0.00,,,0.07,Rainwise IP-100,2013-01-21 04:59:00,
2013-01-20 22:00:00,18.0,18.0,27.36,WSW,247,0.0,0.0,100,0.00,,,0.07,Rainwise IP-100,2013-01-21 05:00:00,
2013-01-20 22:01:00,18.0,18.0,27.36,WSW,247,0.0,0.0,100,0.00,,,0.07,Rainwise IP-100,2013-01-21 05:01:00,
2013-01-20 22:06:00,18.0,18.0,27.36,North,360,0.0,4.0,100,0.00,,,0.07,Rainwise IP-100,2013-01-21 05:06:00,
2013-01-20 22:11:00,17.0,18.0,27.36,North,360,0.0,2.0,100,0.00,,,0.07,Rainwise IP-100,2013-01-21 05:11:00,
2013-01-20 22:17:00,17.0,18.0,27.36,North,360,0.0,1.0,100,0.00,,,0.07,Rainwise IP-100,2013-01-21 05:17:00,
2013-01-20 22:22:00,17.0,18.0,27.37,North,360,0.0,0.0,100,0.00,,,0.07,Rainwise IP-100,2013-01-21 05:22:00,
2013-01-20 22:27:00,18.0,18.0,27.37,North,360,0.0,0.0,100,0.00,,,0.07,Rainwise IP-100,2013-01-21 05:27:00,
2013-01-20 22:32:00,17.0,18.0,27.36,North,360,0.0,0.0,100,0.00,,,0.07,Rainwise IP-100,2013-01-21 05:32:00,
2013-01-20 22:37:00,17.0,18.0,27.37,North,360,0.0,0.0,100,0.00,,,0.07,Rainwise IP-100,2013-01-21 05:37:00,
2013-01-20 22:42:00,17.0,18.0,27.37,North,360,0.0,0.0,100,0.00,,,0.07,Rainwise IP-100,2013-01-21 05:42:00,
2013-01-20 22:47:00,17.0,18.0,27.37,North,360,0.0,0.0,100,0.00,,,0.07,Rainwise IP-100,2013-01-21 05:47:00,
2013-01-20 22:52:00,17.0,18.0,27.37,North,360,0.0,1.0,100,0.00,,,0.07,Rainwise IP-100,2013-01-21 05:52:00,
2013-01-20 22:57:00,17.0,18.0,27.37,North,360,0.0,0.0,100,0.00,,,0.07,Rainwise IP-100,2013-01-21 05:57:00,
2013-01-20 23:02:00,17.0,18.0,27.37,North,360,0.0,2.0,100,0.00,,,0.07,Rainwise IP-100,2013-01-21 06:02:00,
2013-01-20 23:07:00,17.0,18.0,27.37,North,360,0.0,0.0,100,0.00,,,0.07,Rainwise IP-100,2013-01-21 06:07:00,
2013-01-20 23:12:00,17.0,18.0,27.37,North,360,0.0,1.0,100,0.00,,,0.07,Rainwise IP-100,2013-01-21 06:12:00,
2013-01-20 23:17:00,17.0,18.0,27.36,North,360,0.0,0.0,100,0.00,,,0.07,Rainwise IP-100,2013-01-21 06:17:00,
2013-01-20 23:22:00,17.0,18.0,27.36,North,360,0.0,0.0,100,0.00,,,0.07,Rainwise IP-100,2013-01-21 06:22:00,
2013-01-20 23:27:00,16.0,16.0,27.37,North,360,0.0,1.0,100,0.00,,,0.07,Rainwise IP-100,2013-01-21 06:27:00,
2013-01-20 23:32:00,16.0,16.0,27.37,North,360,0.0,0.0,100,0.00,,,0.07,Rainwise IP-100,2013-01-21 06:32:00,
2013-01-20 23:37:00,16.0,16.0,27.36,WNW,292,0.0,0.0,100,0.00,,,0.07,Rainwise IP-100,2013-01-21 06:37:00,
2013-01-20 23:42:00,16.0,16.0,27.36,WNW,292,0.0,0.0,100,0.00,,,0.07,Rainwise IP-100,2013-01-21 06:42:00,
2013-01-20 23:47:00,16.0,16.0,27.36,WNW,292,0.0,0.0,100,0.00,,,0.07,Rainwise IP-100,2013-01-21 06:47:00,
2013-01-20 23:52:00,16.0,16.0,27.36,WNW,292,0.0,0.0,100,0.00,,,0.07,Rainwise IP-100,2013-01-21 06:52:00,
2013-01-20 23:57:00,16.0,16.0,27.36,WNW,292,0.0,0.0,100,0.00,,,0.07,Rainwise IP-100,2013-01-21 06:57:00,